Regional Weather Roundup
Issued by NWS Upton, NY

Current Version | Previous Version | Text Only | Print | Product List | Glossary On
Versions: 1 2 3 4 5 6 7 8 9 10 11 12 13 14 15 16 17 18 19 20 21 22 23 24 25 26 27 28 29 30 31 32 33 34 35 36 37 38 39 40 41 42 43 44 45 46 47 48 49 50
000
ASUS41 KOKX 240705
RWROKX
REGIONAL WEATHER ROUNDUP
NATIONAL WEATHER SERVICE NEW YORK NY
300 AM EDT THU JUL 24 2014

NOTE: "FAIR" INDICATES FEW OR NO CLOUDS BELOW 12,000 FEET WITH NO
SIGNIFICANT WEATHER AND/OR OBSTRUCTIONS TO VISIBILITY.

NYZ071-072-176-178-NJZ106-104-240800-
NEW YORK CITY METRO AREA


CITY           SKY/WX    TMP DP  RH WIND       PRES   REMARKS
CENTRAL PARK   PTCLDY    74  67  78 VRB3      29.83S
LAGUARDIA APRT MOCLDY    74  68  81 NW9       29.79S
KENNEDY INTL   MOCLDY    76  68  76 NW13      29.80S
NEWARK/LIBERTY MOCLDY    73  69  87 NW7       29.80F
BRNX BOT. GARD   N/A     73  66  78 NW6       29.80F
TETERBORO      CLOUDY    76  66  71 NW8       29.80S
$$

NYZ177-179-078>081-240800-
LONG ISLAND NEW YORK

CITY           SKY/WX    TMP DP  RH WIND       PRES   REMARKS
FARMINGDALE    MOCLDY    74  69  85 N8        29.80S
ISLIP          MOCLDY    74  70  87 NW6       29.77F
SHIRLEY        MOCLDY    72  69  90 N5        29.79F
WESTHAMPTON    MOCLDY    71  69  93 CALM      29.79F
MONTAUK POINT    N/A     71  69  93 W3        29.79S
$$

NYZ052-065-067-240800-
HUDSON VALLEY

CITY           SKY/WX    TMP DP  RH WIND       PRES   REMARKS
WHITE PLAINS   MOCLDY    71  68  90 NW8       29.81R
NEWBURGH       CLOUDY    70  70 100 W5        29.83S
MONTGOMERY     CLEAR     67  65  93 SW3       29.82S
POUGHKEEPSIE   CLOUDY    72  67  84 CALM      29.80S
ALBANY         CLOUDY    68  64  87 NW8       29.83F
$$

NJZ001-105-106-008-010-013-015-019>022-104-240800-
NEW JERSEY

CITY           SKY/WX    TMP DP  RH WIND       PRES   REMARKS
NEWARK/LIBERTY MOCLDY    73  69  87 NW7       29.80F
TETERBORO      CLOUDY    76  66  71 NW8       29.80S
CALDWELL       PTCLDY    72  64  76 CALM      29.82F
MORRISTOWN     CLEAR     72  66  83 NW3       29.82F
SOMERVILLE     PTCLDY    69  66  90 CALM      29.81F
LINDEN         FAIR      74  69  85 NW5       29.83F
SUSSEX         CLEAR     71  64  78 NW7       29.84S
ANDOVER          N/A     68  63  84 CALM      29.86S
TRENTON        PTCLDY    71  67  87 NW6       29.83F
MILLVILLE      PTCLDY    70  69  97 CALM      29.82F
ATLANTIC CITY  MOCLDY    71  68  90 NW3       29.81F
WRIGHTSTOWN    PTCLDY    72  71  97 NW8       29.80F
TOMS RIVER     PTCLDY    73  70  88 NW3       29.81F
BELMAR         PTCLDY    73  66  78 NW8       29.81F
$$

PAZ047>061-062-071-240800-
EASTERN PENNSYLVANIA

CITY           SKY/WX    TMP DP  RH WIND       PRES   REMARKS
PHILADELPHIA   CLOUDY    75  66  73 N10       29.83F
ALLENTOWN      MOCLDY    68  64  87 W3        29.86S
SCRANTON       CLOUDY    67  60  78 VRB3      29.90S
$$

CTZ002-004>006-009-010-012-RIZ004-006-007-MAZ004-011-015-240800-
SOUTHERN NEW ENGLAND
 IN CT

CITY           SKY/WX    TMP DP  RH WIND       PRES   REMARKS
BRADLEY INTL   CLOUDY    71  68  90 NW3       29.77S
HARTFORD       MOCLDY    72  68  87 W5        29.77S
DANBURY        MOCLDY    70  66  87 CALM      29.83R
WTRBRY/OXFORD  MOCLDY    68  63  83 NW3       29.83S
BRIDGEPORT     CLOUDY    73  68  84 NW5       29.80R
MERIDEN        MOCLDY    69  68  96 CALM      29.79R FOG
NEW HAVEN      MOCLDY    73  69  87 CALM      29.79R
CHESTER        FAIR      70  68  94 W3        29.80S
GROTON         MOCLDY    70  69  97 CALM      29.76S
WILLIMANTIC    MOCLDY    71  69  93 CALM      29.77F

 IN RI

CITY           SKY/WX    TMP DP  RH WIND       PRES   REMARKS
PROVIDENCE     PTCLDY    71  66  84 W7        29.76F
BLOCK ISLAND   PTCLDY    70  64  83 SW9       29.78R
WESTERLY       MOCLDY    71  68  90 W5        29.78S

 IN MA

CITY           SKY/WX    TMP DP  RH WIND       PRES   REMARKS
BOSTON         CLOUDY    75  67  76 NW6       29.75F
WORCESTER      CLOUDY    68  67  96 W7        29.79F
WESTFIELD      CLOUDY    71  67  87 N5        29.78R
PROVINCETOWN   MOCLDY    66  66 100 W7        29.75F
NANTUCKET      FOG       67  66  97 SW9       29.76F VSB 1/4
$$

ANZ330-335-338-340-345-350-353-355-240800-
COASTAL MARINE OBSERVATIONS


STATION/POSITION TIME  SKY/WX   TEMP    WIND        PRES    VSBY  WAVE
                                AIR SEA DIR/SP/G                  HT/PER
                 (UTC)          (F)     (DEG/KT/KT) (MB)    (MI)  (FT/S)
NY HARB ENTRANCE NOT AVBL
4S FIRE IS       NOT AVBL
23SW MTP         0700            71 70              1007.6          3/ 5
HUDSON CANYON    0700            75 74  240/ 14/ 16 1008.6          3/ 4
EXECUTION ROCKS  0700            74 71  350/  6/  8   N/A
WESTERN LI SOUND 0600            74     320/  4/  6   N/A           0
CENTRAL LI SOUND 0700            73 73  280/  6/ 10   N/A           1
EASTERN LI SOUND 0600            69 67  290/  8/ 10   N/A
ROBBINS REEF     0600            75     320/  9/ 11   N/A
$$


>>>>>>>>>>>>>>>>>>>>>>>>>>>> KEY <<<<<<<<<<<<<<<<<<<<<<<<<<<
>                                                          <
>     SKY/WX - SKY CONDITION/PRESENT WEATHER               <
>     TMP    - TEMPERATURE IN FAHRENHEIT                   <
>     DP     - DEWPOINT IN FAHRENHEIT                      <
>     RH     - RELATIVE HUMIDITY IN PERCENT                <
>     WIND   - DIRECTION AND SPEED IN MPH                  <
>     PRES   - MEAN SEA LEVEL PRESSURE IN INCHES OF HG     <
>     WCI    - WIND CHILL INDEX                            <
>     VSB    - VISIBILITY IN MILES                         <
>     HX     - HEAT INDEX                                  <
>     TC     - TEMPERATURE IN CELSIUS                      <
>     VRB    - VARIABLE WIND DIRECTION                     <
>                                                          <
>>>>>>>>>>>>>>>>>>>>>>>>>>>> KEY <<<<<<<<<<<<<<<<<<<<<<<<<<<





USA.gov is the U.S. government's official web portal to all federal, state and local government web resources and services.